This demonstration page uses our WeatherBlox Daily Observations layout. Learn more.

40.92945, -100.16068

Hourly Observations for August 11, 2018

Temp ( °F °C ) Dew Point ( °F °C ) Humidity (%) Winds ( mph kmh ) Pressure ( in mb ) Visibility ( mi km ) Precip ( " mm )
12:15 am 00:15 Clear 69 20.4 64 17.8 85 85 Calm 30.03 1017 7 11.26538 0 0
12:35 am 00:35 Clear 69 20.5 64 17.5 83 83 S 3 6 30.03 1017 7 11.26538 0 0
12:55 am 00:55 Clear 68 20.1 63 17.2 83 83 SSE 5 7 30.03 1017 7 11.26538 0 0
1:15 am 01:15 Clear 68 20 62 16.9 82 82 SSE 5 7 30.03 1017 7 11.26538 0 0
1:35 am 01:35 Clear 68 20.2 62 16.9 81 81 SSE 3 6 30.03 1017 7 11.26538 0 0
1:55 am 01:55 Clear 67 19.6 62 16.7 83 83 Calm 30.03 1017 7 11.26538 0 0
2:15 am 02:15 Clear 68 19.9 62 16.7 82 82 Calm 30.03 1017 7 11.26538 0 0
2:35 am 02:35 Clear 64 17.8 61 16 89 89 Calm 30.03 1017 7 11.26538 0 0
2:55 am 02:55 Clear 64 17.8 61 16.1 90 90 Calm 30.03 1017 7 11.26538 0 0
3:15 am 03:15 Clear 62 16.7 60 15.3 92 92 Calm 30.06 1018 7 11.26538 0 0
3:35 am 03:35 Clear with Mist and Fog 62 16.8 60 15.7 93 93 Calm 30.06 1018 5 8.0467 0 0
3:55 am 03:55 Clear with Mist and Fog 62 16.7 60 15.7 94 94 Calm 30.06 1018 5 8.0467 0 0
4:15 am 04:15 Clear with Mist and Fog 62 16.6 60 15.5 93 93 Calm 30.06 1018 5 8.0467 0 0
4:35 am 04:35 Clear with Mist and Fog 62 16.5 60 15.5 94 94 Calm 30.06 1018 4 6.43736 0 0
4:55 am 04:55 Clear with Mist and Fog 61 16.2 59 15 93 93 Calm 30.06 1018 5 8.0467 0 0
5:15 am 05:15 Clear with Mist and Fog 61 16.3 59 15.2 93 93 WSW 5 7 30.06 1018 5 8.0467 0 0
5:35 am 05:35 Clear 61 16.1 59 15 93 93 WNW 3 6 30.06 1018 7 11.26538 0 0
5:55 am 05:55 Clear 61 16 59 14.9 93 93 Calm 30.06 1018 7 11.26538 0 0
6:15 am 06:15 Clear 61 16 58 14.6 91 91 WSW 6 9 30.03 1017 7 11.26538 0 0
6:35 am 06:35 Clear 61 16.3 59 15.1 93 93 W 5 7 30.03 1017 7 11.26538 0 0
6:55 am 06:55 Sunny with Mist and Fog 60 15.6 58 14.5 93 93 WNW 3 6 30.06 1018 4 6.43736 0 0
7:15 am 07:15 Sunny with Mist and Fog 60 15.7 58 14.6 93 93 Calm 30.06 1018 5 8.0467 0 0
7:35 am 07:35 Sunny with Mist and Fog 61 15.9 59 14.9 94 94 NW 3 6 30.06 1018 3 4.82802 0 0
7:55 am 07:55 Sunny with Mist and Fog 62 16.9 60 15.8 93 93 WNW 5 7 30.06 1018 5 8.0467 0 0
8:15 am 08:15 Sunny with Mist and Fog 64 18 62 16.6 92 92 WNW 6 9 30.03 1017 5 8.0467 0 0
8:35 am 08:35 Sunny with Mist and Fog 66 18.7 62 16.9 89 89 WNW 6 9 30.03 1017 5 8.0467 0 0
8:55 am 08:55 Sunny with Mist and Fog 67 19.7 64 17.5 87 87 WNW 7 11 30.03 1017 5 8.0467 0 0
9:15 am 09:15 Sunny 69 20.7 64 17.8 84 84 WNW 8 13 30.03 1017 7 11.26538 0 0
9:35 am 09:35 Sunny 72 22 65 18.5 81 81 WNW 7 11 30 1016 10 16.0934 0 0
9:55 am 09:55 Sunny 73 23 65 18.1 74 74 W 8 13 30.03 1017 10 16.0934 0 0
10:15 am 10:15 Sunny 75 24.1 65 18.1 69 69 W 8 13 30.03 1017 10 16.0934 0 0
10:35 am 10:35 Sunny 76 24.7 65 18.1 67 67 WNW 7 11 30 1016 10 16.0934 0 0
10:55 am 10:55 Sunny 78 25.7 66 18.7 65 65 Calm 30 1016 10 16.0934 0 0
11:15 am 11:15 Sunny 80 26.6 66 18.7 62 62 Calm 30 1016 10 16.0934 0 0
11:35 am 11:35 Sunny 81 27.2 67 19.2 62 62 Calm 30 1016 10 16.0934 0 0
11:55 am 11:55 Sunny 82 28 67 19.5 60 60 SSW 3 6 30 1016 10 16.0934 0 0
12:15 pm 12:15 Sunny 83 28.5 68 20 60 60 SSE 6 9 29.97 1015 10 16.0934 0 0
12:35 pm 12:35 Sunny 84 28.7 68 19.9 59 59 S 5 7 29.97 1015 10 16.0934 0 0
12:55 pm 12:55 Sunny 85 29.3 68 20.1 58 58 S 3 6 29.94 1014 10 16.0934 0 0
1:15 pm 13:15 Sunny 85 29.7 68 20.1 56 56 SSE 3 6 29.94 1014 10 16.0934 0 0
1:35 pm 13:35 Sunny 86 30.2 68 19.8 54 54 Calm 29.94 1014 10 16.0934 0 0
1:55 pm 13:55 Sunny 87 30.3 67 19.6 53 53 Calm 29.94 1014 10 16.0934 0 0
2:15 pm 14:15 Sunny 88 31.2 69 20.5 53 53 Calm 29.94 1014 10 16.0934 0 0
2:35 pm 14:35 Sunny 88 31.1 68 19.8 51 51 Calm 29.94 1014 10 16.0934 0 0
2:55 pm 14:55 Sunny 90 32 69 20.5 51 51 S 3 6 29.91 1013 10 16.0934 0 0
3:15 pm 15:15 Sunny 90 32 67 19.4 47 47 Calm 29.88 1012 10 16.0934 0 0
3:35 pm 15:35 Sunny 90 32 65 18.4 44 44 Calm 29.88 1012 10 16.0934 0 0
3:55 pm 15:55 Sunny 90 32.1 65 18.2 44 44 Calm 29.88 1012 10 16.0934 0 0
4:15 pm 16:15 Sunny 91 32.5 64 17.6 41 41 Calm 29.88 1012 10 16.0934 0 0
4:35 pm 16:35 Sunny 91 32.6 63 17 39 39 S 3 6 29.88 1012 10 16.0934 0 0
4:55 pm 16:55 Sunny 91 33 59 14.8 33 33 Calm 29.88 1012 10 16.0934 0 0
5:15 pm 17:15 Sunny 91 32.7 59 15 34 34 Calm 29.85 1011 10 16.0934 0 0
5:35 pm 17:35 Sunny 91 32.6 63 17.2 40 40 SSE 3 6 29.85 1011 10 16.0934 0 0
5:55 pm 17:55 Sunny 90 32.3 66 19.1 46 46 SSE 7 11 29.85 1011 10 16.0934 0 0
6:15 pm 18:15 Sunny 89 31.5 69 20.4 52 52 SSE 7 11 29.85 1011 10 16.0934 0 0
6:35 pm 18:35 Sunny 88 31 68 20.2 53 53 SSE 7 11 29.85 1011 10 16.0934 0 0
6:55 pm 18:55 Sunny 87 30.4 69 20.5 55 55 SSE 7 11 29.88 1012 10 16.0934 0 0
7:15 pm 19:15 Sunny 86 29.9 69 20.7 58 58 SSE 6 9 29.88 1012 10 16.0934 0 0
7:35 pm 19:35 Sunny 84 29 69 20.6 61 61 SSE 6 9 29.88 1012 10 16.0934 0 0
7:55 pm 19:55 Sunny 82 27.9 70 21 66 66 SSE 6 9 29.88 1012 10 16.0934 0 0
8:15 pm 20:15 Sunny 81 27.2 70 21 69 69 SSE 7 11 29.91 1013 10 16.0934 0 0
8:35 pm 20:35 Sunny 80 26.7 69 20.4 68 68 SSE 7 11 29.91 1013 10 16.0934 0 0
8:55 pm 20:55 Clear 78 25.6 69 20.6 74 74 SSE 7 11 29.91 1013 10 16.0934 0 0
9:15 pm 21:15 Clear 75 24.1 69 20.5 80 80 S 6 9 29.94 1014 10 16.0934 0 0
9:35 pm 21:35 Clear 75 23.8 68 20.2 80 80 S 3 6 29.97 1015 7 11.26538 0 0
9:55 pm 21:55 Clear 76 24.5 68 19.8 75 75 SSE 3 6 29.94 1014 10 16.0934 0 0
10:15 pm 22:15 Clear 74 23.5 67 19.5 78 78 S 5 7 29.97 1015 10 16.0934 0 0
10:35 pm 22:35 Clear 72 22.4 66 18.8 80 80 S 5 7 30 1016 10 16.0934 0 0
10:55 pm 22:55 Clear 72 22.3 65 18.3 78 78 SSW 6 9 30 1016 10 16.0934 0 0
11:15 pm 23:15 Clear 71 21.8 64 18 79 79 S 3 6 30 1016 10 16.0934 0 0
11:35 pm 23:35 Clear 71 21.5 64 17.8 80 80 S 5 7 29.97 1015 10 16.0934 0 0
11:55 pm 23:55 Clear 70 21.1 64 17.5 80 80 S 5 7 30 1016 10 16.0934 0 0

Powered by AerisWeather